Location: San Vito
(41.8833°N, 12.9833°E)
Time: 07:20:42
(UTC+00:00)

Cosmos 372 Rocket - Pass Details

Date: 17 November 2019
Orbit: 739 x 767 km, 74.1° (Epoch: 15 December)

Event Time Altitude Azimuth Distance (km) Brightness Sun altitude
Rises 04:28:01 0° 194° (SSW) 3,194 7.2 -17.0°
Reaches altitude 10° 04:30:22 10° 193° (SSW) 2,269 6.4 -16.6°
Maximum altitude 04:35:30 79° 108° (ESE) 768 4.1 -15.7°
Drops below altitude 10° 04:40:38 10° 22° (NNE) 2,267 6.6 -14.7°
Sets 04:43:00 0° 21° (NNE) 3,192 7.3 -14.3°
